MEV-1

Last updated on Wed Sep 09 2026 00:03:02 GMT+0000 (Coordinated Universal Time)

1 44625U 19067B 26251.40477964 -.00000168 00000+0 00000+0 0 9995 2 44625 0.8359 268.0569 0004105 265.4331 115.8169 1.00270174 62403
UTC large
Height (km)
Speed (km/s)
/
Latitude / Longitude
Inclination (degrees)
Orbital Period (minutes)
Azimuth
Elevation
Range (km)
Doppler Factor

Next 0 passes for location: London (51.5072 / 0.1276)

No passes found over London.
MEV-1